リニア-ニート周期彗星

P/2001 Q5 ( LINEAR-NEAT )

English version
Home page
Total 5,708 html files since Dec. 4, 1995
Updated on November 25, 2001

---------------------------------------------------------------------

・ プロフィール

発見日 2001年8月17日, 8月28日
発見光度 17.3等
発見者 Lincoln Laboratory Near-Earth Asteroid Research project, Near-Earth-Asteroid Tracking Team (Jet Propulsion Laboratory)

・ 軌道要素

T 2001 June 11.6127 TT                                  MPC
q   2.043032             (2000.0)            P               Q
n   0.1503399      Peri.    6.3892      +0.9537301      +0.2907920
a   3.502837       Node   336.2692      -0.2835768      +0.7855345
e   0.416749       Incl.   10.9455      -0.0999156      +0.5462376
P   6.56
>From 202 observations 2001 Aug. 17-Nov. 12.

・ 星図

・ 光度変化

        m1 = 12.5 + 5 logΔ + 10.0 log r

---------------------------------------------------------------------

軌道要素は Dr. Brian G. Marsden の計算によるもので、 M.P.E.C. 2001-W10 に掲載されたものです。
星図は StellaNavigator Ver.2.0 for Windows (アストロアーツ 編著 / アスキー出版局刊) で作成したものです。
光度グラフはComet for Windowsで作成したものです。

---------------------------------------------------------------------

Copyright(C) 1995-2007 Seiichi Yoshida (comet@aerith.net). All rights reserved.